Time,TemperatureF,DewpointF,PressureIn,WindDirection,WindDirectionDegrees,WindSpeedMPH,WindSpeedGustMPH,Humidity,HourlyPrecipIn,Conditions,Clouds,dailyrainin,SolarRadiationWatts/m^2,SoftwareType,DateUTC
2013-04-16 00:04:00,43.9,33.6,29.99,WSW,237,1.0,3.0,67,0.00,,,0.00,0,Wunderground v.1.15,2013-04-16 07:04:00,
2013-04-16 00:10:00,43.9,33.6,29.99,WSW,238,1.0,1.0,67,0.00,,,0.00,0,Wunderground v.1.15,2013-04-16 07:10:00,
2013-04-16 00:16:00,43.8,33.6,29.99,WSW,238,0.0,3.0,67,0.00,,,0.00,0,Wunderground v.1.15,2013-04-16 07:16:00,
2013-04-16 00:21:00,43.7,33.5,29.99,WSW,238,0.0,3.0,67,0.00,,,0.00,0,Wunderground v.1.15,2013-04-16 07:21:00,
2013-04-16 00:27:00,43.6,33.4,29.99,WSW,238,0.0,3.0,67,0.00,,,0.00,0,Wunderground v.1.15,2013-04-16 07:27:00,
2013-04-16 00:33:00,43.5,33.3,30.00,WSW,238,0.0,3.0,67,0.00,,,0.00,0,Wunderground v.1.15,2013-04-16 07:33:00,
2013-04-16 00:39:00,43.3,33.4,30.00,WSW,238,0.0,3.0,68,0.00,,,0.00,0,Wunderground v.1.15,2013-04-16 07:39:00,
2013-04-16 00:45:00,43.2,33.3,30.00,WSW,238,0.0,3.0,68,0.00,,,0.00,0,Wunderground v.1.15,2013-04-16 07:45:00,
2013-04-16 00:51:00,43.0,33.2,30.00,WSW,238,0.0,3.0,68,0.00,,,0.00,0,Wunderground v.1.15,2013-04-16 07:51:00,
2013-04-16 00:56:00,42.8,33.3,30.00,WSW,238,0.0,3.0,69,0.00,,,0.00,0,Wunderground v.1.15,2013-04-16 07:56:00,
2013-04-16 01:01:00,42.5,33.0,30.00,WSW,238,0.0,3.0,69,0.00,,,0.00,0,Wunderground v.1.15,2013-04-16 08:01:00,
2013-04-16 01:07:00,42.2,33.1,30.00,SW,236,1.0,3.0,70,0.00,,,0.00,0,Wunderground v.1.15,2013-04-16 08:07:00,
2013-04-16 01:13:00,42.0,32.9,30.00,SW,236,1.0,3.0,70,0.00,,,0.00,0,Wunderground v.1.15,2013-04-16 08:13:00,
2013-04-16 01:19:00,41.8,33.1,30.01,SW,236,0.0,3.0,71,0.00,,,0.00,0,Wunderground v.1.15,2013-04-16 08:19:00,
2013-04-16 01:24:00,41.7,33.0,30.00,SW,236,0.0,3.0,71,0.00,,,0.00,0,Wunderground v.1.15,2013-04-16 08:24:00,
2013-04-16 01:29:00,41.6,32.9,30.00,SW,236,0.0,3.0,71,0.00,,,0.00,0,Wunderground v.1.15,2013-04-16 08:29:00,
2013-04-16 01:35:00,41.6,32.5,30.01,SW,236,0.0,3.0,70,0.00,,,0.00,0,Wunderground v.1.15,2013-04-16 08:35:00,
2013-04-16 01:40:00,41.5,32.8,30.01,SW,236,0.0,3.0,71,0.00,,,0.00,0,Wunderground v.1.15,2013-04-16 08:40:00,
2013-04-16 01:46:00,41.4,32.7,30.01,SW,236,0.0,3.0,71,0.00,,,0.00,0,Wunderground v.1.15,2013-04-16 08:46:00,
2013-04-16 01:52:00,41.3,32.6,30.01,SW,236,0.0,3.0,71,0.00,,,0.00,0,Wunderground v.1.15,2013-04-16 08:52:00,
2013-04-16 01:58:00,41.3,32.6,30.01,SW,236,0.0,3.0,71,0.00,,,0.00,0,Wunderground v.1.15,2013-04-16 08:58:00,
2013-04-16 02:04:00,41.2,32.9,30.01,SW,236,0.0,3.0,72,0.00,,,0.00,0,Wunderground v.1.15,2013-04-16 09:04:00,
2013-04-16 02:10:00,41.1,32.8,30.01,SW,235,1.0,1.0,72,0.00,,,0.00,0,Wunderground v.1.15,2013-04-16 09:10:00,
2013-04-16 02:15:00,41.1,32.8,30.02,SW,235,0.0,3.0,72,0.00,,,0.00,0,Wunderground v.1.15,2013-04-16 09:15:00,
2013-04-16 02:21:00,41.0,32.7,30.02,SW,235,0.0,3.0,72,0.00,,,0.00,0,Wunderground v.1.15,2013-04-16 09:21:00,
2013-04-16 02:26:00,41.0,32.7,30.02,SW,235,0.0,3.0,72,0.00,,,0.00,0,Wunderground v.1.15,2013-04-16 09:26:00,
2013-04-16 02:31:00,40.9,32.6,30.01,SW,235,0.0,3.0,72,0.00,,,0.00,0,Wunderground v.1.15,2013-04-16 09:31:00,
2013-04-16 02:37:00,40.8,32.5,30.02,SW,235,0.0,3.0,72,0.00,,,0.00,0,Wunderground v.1.15,2013-04-16 09:37:00,
2013-04-16 02:42:00,40.7,32.4,30.02,SW,235,0.0,3.0,72,0.00,,,0.00,0,Wunderground v.1.15,2013-04-16 09:42:00,
2013-04-16 02:48:00,40.5,32.5,30.02,SW,235,0.0,3.0,73,0.00,,,0.00,0,Wunderground v.1.15,2013-04-16 09:48:00,
2013-04-16 02:53:00,40.4,32.4,30.01,SW,235,0.0,3.0,73,0.00,,,0.00,0,Wunderground v.1.15,2013-04-16 09:53:00,
2013-04-16 02:58:00,40.4,32.4,30.01,SW,235,0.0,3.0,73,0.00,,,0.00,0,Wunderground v.1.15,2013-04-16 09:58:00,
2013-04-16 03:04:00,40.3,32.3,30.01,SW,235,0.0,3.0,73,0.00,,,0.00,0,Wunderground v.1.15,2013-04-16 10:04:00,
2013-04-16 03:10:00,40.2,32.2,30.02,SW,236,0.0,3.0,73,0.00,,,0.00,0,Wunderground v.1.15,2013-04-16 10:10:00,
2013-04-16 03:16:00,40.0,32.4,30.02,SW,236,0.0,3.0,74,0.00,,,0.00,0,Wunderground v.1.15,2013-04-16 10:16:00,
2013-04-16 03:21:00,39.8,32.2,30.02,SW,236,0.0,3.0,74,0.00,,,0.00,0,Wunderground v.1.15,2013-04-16 10:21:00,
2013-04-16 03:27:00,39.6,32.0,30.02,SW,236,0.0,3.0,74,0.00,,,0.00,0,Wunderground v.1.15,2013-04-16 10:27:00,
2013-04-16 03:33:00,39.4,31.8,30.02,SW,236,0.0,3.0,74,0.00,,,0.00,0,Wunderground v.1.15,2013-04-16 10:33:00,
2013-04-16 03:38:00,39.2,31.9,30.02,SW,236,0.0,3.0,75,0.00,,,0.00,0,Wunderground v.1.15,2013-04-16 10:38:00,
2013-04-16 03:44:00,38.9,32.0,30.02,SW,236,0.0,3.0,76,0.00,,,0.00,0,Wunderground v.1.15,2013-04-16 10:44:00,
2013-04-16 03:50:00,38.8,31.9,30.02,SW,236,0.0,3.0,76,0.00,,,0.00,0,Wunderground v.1.15,2013-04-16 10:50:00,
2013-04-16 03:55:00,38.7,31.8,30.02,SW,236,0.0,3.0,76,0.00,,,0.00,0,Wunderground v.1.15,2013-04-16 10:55:00,
2013-04-16 04:00:00,38.8,32.2,30.02,SW,233,0.0,3.0,77,0.00,,,0.00,0,Wunderground v.1.15,2013-04-16 11:00:00,
2013-04-16 04:06:00,38.7,32.1,30.02,SW,226,0.0,3.0,77,0.00,,,0.00,0,Wunderground v.1.15,2013-04-16 11:06:00,
2013-04-16 04:11:00,38.7,32.1,30.02,SW,226,0.0,3.0,77,0.00,,,0.00,0,Wunderground v.1.15,2013-04-16 11:11:00,
2013-04-16 04:17:00,38.8,32.2,30.03,SW,226,0.0,3.0,77,0.00,,,0.00,0,Wunderground v.1.15,2013-04-16 11:17:00,
2013-04-16 04:22:00,38.9,32.0,30.03,SW,226,0.0,3.0,76,0.00,,,0.00,0,Wunderground v.1.15,2013-04-16 11:22:00,
2013-04-16 04:28:00,39.1,32.2,30.03,SW,223,1.0,3.0,76,0.00,,,0.00,0,Wunderground v.1.15,2013-04-16 11:28:00,
2013-04-16 04:34:00,39.2,32.3,30.03,SW,223,0.0,3.0,76,0.00,,,0.00,0,Wunderground v.1.15,2013-04-16 11:34:00,
2013-04-16 04:40:00,39.3,32.4,30.03,SW,223,0.0,3.0,76,0.00,,,0.00,0,Wunderground v.1.15,2013-04-16 11:40:00,
2013-04-16 04:46:00,39.4,32.1,30.03,SW,223,0.0,3.0,75,0.00,,,0.00,0,Wunderground v.1.15,2013-04-16 11:46:00,
2013-04-16 04:52:00,39.4,32.1,30.04,SW,223,0.0,3.0,75,0.00,,,0.00,0,Wunderground v.1.15,2013-04-16 11:52:00,
2013-04-16 04:57:00,39.3,32.0,30.04,SW,223,0.0,3.0,75,0.00,,,0.00,0,Wunderground v.1.15,2013-04-16 11:57:00,
2013-04-16 05:03:00,39.2,31.9,30.04,SW,219,0.0,3.0,75,0.00,,,0.00,0,Wunderground v.1.15,2013-04-16 12:03:00,
2013-04-16 05:09:00,39.1,31.8,30.05,SW,219,0.0,3.0,75,0.00,,,0.00,0,Wunderground v.1.15,2013-04-16 12:09:00,
2013-04-16 05:15:00,39.1,31.8,30.05,SW,219,0.0,3.0,75,0.00,,,0.00,0,Wunderground v.1.15,2013-04-16 12:15:00,
2013-04-16 05:20:00,39.0,32.1,30.05,SW,219,0.0,3.0,76,0.00,,,0.00,0,Wunderground v.1.15,2013-04-16 12:20:00,
2013-04-16 05:25:00,39.1,32.2,30.05,SW,219,0.0,3.0,76,0.00,,,0.00,0,Wunderground v.1.15,2013-04-16 12:25:00,
2013-04-16 05:31:00,39.2,32.3,30.05,SW,219,1.0,3.0,76,0.00,,,0.00,0,Wunderground v.1.15,2013-04-16 12:31:00,
2013-04-16 05:36:00,39.3,32.0,30.05,SW,219,1.0,3.0,75,0.00,,,0.00,0,Wunderground v.1.15,2013-04-16 12:36:00,
2013-04-16 05:42:00,39.5,32.2,30.05,SW,219,1.0,3.0,75,0.00,,,0.00,0,Wunderground v.1.15,2013-04-16 12:42:00,
2013-04-16 05:48:00,39.6,32.3,30.05,SW,219,1.0,3.0,75,0.00,,,0.00,0,Wunderground v.1.15,2013-04-16 12:48:00,
2013-04-16 05:53:00,39.7,32.1,30.06,SW,219,0.0,3.0,74,0.00,,,0.00,0,Wunderground v.1.15,2013-04-16 12:53:00,
2013-04-16 05:58:00,39.7,32.1,30.05,SW,219,0.0,3.0,74,0.00,,,0.00,0,Wunderground v.1.15,2013-04-16 12:58:00,
2013-04-16 06:03:00,39.8,32.2,30.06,SW,219,0.0,3.0,74,0.00,,,0.00,0,Wunderground v.1.15,2013-04-16 13:03:00,
2013-04-16 06:09:00,39.8,31.8,30.06,SW,223,0.0,3.0,73,0.00,,,0.00,0,Wunderground v.1.15,2013-04-16 13:09:00,
2013-04-16 06:14:00,39.9,31.9,30.06,SW,217,0.0,3.0,73,0.00,,,0.00,0,Wunderground v.1.15,2013-04-16 13:14:00,
2013-04-16 06:19:00,40.1,31.8,30.06,SW,216,0.0,3.0,72,0.00,,,0.00,0,Wunderground v.1.15,2013-04-16 13:19:00,
2013-04-16 06:24:00,40.2,31.9,30.06,SW,216,0.0,3.0,72,0.00,,,0.00,0,Wunderground v.1.15,2013-04-16 13:24:00,
2013-04-16 06:30:00,40.4,32.1,30.06,SW,216,0.0,3.0,72,0.00,,,0.00,0,Wunderground v.1.15,2013-04-16 13:30:00,
2013-04-16 06:36:00,40.4,31.7,30.06,SW,216,0.0,3.0,71,0.00,,,0.00,5,Wunderground v.1.15,2013-04-16 13:36:00,
2013-04-16 06:41:00,40.4,31.7,30.07,SW,216,0.0,3.0,71,0.00,,,0.00,9,Wunderground v.1.15,2013-04-16 13:41:00,
2013-04-16 06:47:00,40.3,31.6,30.07,SW,216,0.0,3.0,71,0.00,,,0.00,11,Wunderground v.1.15,2013-04-16 13:47:00,
2013-04-16 06:53:00,40.2,31.9,30.07,SW,217,0.0,3.0,72,0.00,,,0.00,14,Wunderground v.1.15,2013-04-16 13:53:00,
2013-04-16 06:58:00,40.2,31.5,30.08,SW,236,2.0,5.0,71,0.00,,,0.00,16,Wunderground v.1.15,2013-04-16 13:58:00,
2013-04-16 07:03:00,40.5,31.5,30.07,SW,236,3.0,8.0,70,0.00,,,0.00,18,Wunderground v.1.15,2013-04-16 14:03:00,
2013-04-16 07:08:00,41.0,31.2,30.08,WNW,290,3.0,8.0,68,0.00,,,0.00,19,Wunderground v.1.15,2013-04-16 14:08:00,
2013-04-16 07:14:00,41.5,31.7,30.08,WSW,238,2.0,4.0,68,0.00,,,0.00,54,Wunderground v.1.15,2013-04-16 14:14:00,
2013-04-16 07:19:00,41.8,32.0,30.08,WSW,249,2.0,4.0,68,0.00,,,0.00,69,Wunderground v.1.15,2013-04-16 14:19:00,
2013-04-16 07:25:00,42.0,31.8,30.08,WSW,244,2.0,4.0,67,0.00,,,0.00,91,Wunderground v.1.15,2013-04-16 14:25:00,
2013-04-16 07:31:00,42.4,32.2,30.08,West,267,3.0,4.0,67,0.00,,,0.00,113,Wunderground v.1.15,2013-04-16 14:31:00,
2013-04-16 07:36:00,42.8,32.6,30.08,SW,236,2.0,6.0,67,0.00,,,0.00,134,Wunderground v.1.15,2013-04-16 14:36:00,
2013-04-16 07:42:00,43.2,32.6,30.08,SSE,154,1.0,3.0,66,0.00,,,0.00,151,Wunderground v.1.15,2013-04-16 14:42:00,
2013-04-16 07:48:00,43.7,32.7,30.08,WNW,288,2.0,5.0,65,0.00,,,0.00,185,Wunderground v.1.15,2013-04-16 14:48:00,
2013-04-16 07:54:00,45.1,31.6,30.08,NE,47,3.0,5.0,59,0.00,,,0.00,211,Wunderground v.1.15,2013-04-16 14:54:00,
2013-04-16 07:59:00,46.9,30.2,30.08,NNE,15,4.0,11.0,52,0.00,,,0.00,232,Wunderground v.1.15,2013-04-16 14:59:00,
2013-04-16 08:05:00,48.7,29.4,30.08,North,355,4.0,9.0,47,0.00,,,0.00,255,Wunderground v.1.15,2013-04-16 15:05:00,
2013-04-16 08:11:00,50.4,28.1,30.08,NNE,30,3.0,6.0,42,0.00,,,0.00,276,Wunderground v.1.15,2013-04-16 15:11:00,
2013-04-16 08:16:00,51.9,27.7,30.08,East,81,6.0,15.0,39,0.00,,,0.00,295,Wunderground v.1.15,2013-04-16 15:16:00,
2013-04-16 08:22:00,53.0,27.4,30.08,NNE,14,9.0,13.0,37,0.00,,,0.00,316,Wunderground v.1.15,2013-04-16 15:22:00,
2013-04-16 08:27:00,53.4,27.1,30.08,NNE,23,8.0,15.0,36,0.00,,,0.00,336,Wunderground v.1.15,2013-04-16 15:27:00,
2013-04-16 08:32:00,53.7,27.4,30.08,NNE,32,10.0,13.0,36,0.00,,,0.00,355,Wunderground v.1.15,2013-04-16 15:32:00,
2013-04-16 08:38:00,53.9,26.8,30.08,North,350,10.0,13.0,35,0.00,,,0.00,373,Wunderground v.1.15,2013-04-16 15:38:00,
2013-04-16 08:43:00,54.2,26.4,30.08,NNW,342,9.0,9.0,34,0.00,,,0.00,392,Wunderground v.1.15,2013-04-16 15:43:00,
2013-04-16 08:49:00,54.4,26.6,30.09,NNW,339,9.0,17.0,34,0.00,,,0.00,413,Wunderground v.1.15,2013-04-16 15:49:00,
2013-04-16 08:54:00,54.5,26.7,30.08,NE,35,10.0,11.0,34,0.00,,,0.00,431,Wunderground v.1.15,2013-04-16 15:54:00,
2013-04-16 09:00:00,54.6,27.5,30.09,North,360,8.0,8.0,35,0.00,,,0.00,450,Wunderground v.1.15,2013-04-16 16:00:00,
2013-04-16 09:05:00,54.8,26.9,30.09,ENE,67,7.0,10.0,34,0.00,,,0.00,466,Wunderground v.1.15,2013-04-16 16:05:00,
2013-04-16 09:11:00,55.2,26.6,30.09,NNE,23,8.0,8.0,33,0.00,,,0.00,487,Wunderground v.1.15,2013-04-16 16:11:00,
2013-04-16 09:17:00,55.7,27.7,30.09,NNW,339,7.0,11.0,34,0.00,,,0.00,508,Wunderground v.1.15,2013-04-16 16:17:00,
2013-04-16 09:22:00,56.0,26.5,30.09,NNW,345,7.0,14.0,32,0.00,,,0.00,524,Wunderground v.1.15,2013-04-16 16:22:00,
2013-04-16 09:28:00,56.1,26.6,30.09,North,5,9.0,20.0,32,0.00,,,0.00,545,Wunderground v.1.15,2013-04-16 16:28:00,
2013-04-16 09:34:00,56.6,26.3,30.09,North,355,8.0,13.0,31,0.00,,,0.00,563,Wunderground v.1.15,2013-04-16 16:34:00,
2013-04-16 09:40:00,57.2,28.3,30.09,East,80,6.0,6.0,33,0.00,,,0.00,582,Wunderground v.1.15,2013-04-16 16:40:00,
2013-04-16 09:45:00,57.6,27.2,30.09,NW,315,6.0,11.0,31,0.00,,,0.00,598,Wunderground v.1.15,2013-04-16 16:45:00,
2013-04-16 09:50:00,58.0,26.7,30.09,NNW,342,6.0,9.0,30,0.00,,,0.00,612,Wunderground v.1.15,2013-04-16 16:50:00,
2013-04-16 09:55:00,58.6,28.0,30.09,WSW,242,4.0,9.0,31,0.00,,,0.00,629,Wunderground v.1.15,2013-04-16 16:55:00,
2013-04-16 10:01:00,58.5,25.5,30.09,NNE,26,6.0,10.0,28,0.00,,,0.00,647,Wunderground v.1.15,2013-04-16 17:01:00,
2013-04-16 10:06:00,58.6,28.0,30.09,North,349,8.0,11.0,31,0.00,,,0.00,659,Wunderground v.1.15,2013-04-16 17:06:00,
2013-04-16 10:11:00,59.1,30.0,30.09,West,278,6.0,6.0,33,0.00,,,0.00,670,Wunderground v.1.15,2013-04-16 17:11:00,
2013-04-16 10:17:00,59.6,29.7,30.09,NW,309,5.0,6.0,32,0.00,,,0.00,689,Wunderground v.1.15,2013-04-16 17:17:00,
2013-04-16 10:22:00,60.0,30.0,30.09,NW,326,4.0,5.0,32,0.00,,,0.00,700,Wunderground v.1.15,2013-04-16 17:22:00,
2013-04-16 10:27:00,60.4,29.6,30.10,NW,321,4.0,10.0,31,0.00,,,0.00,714,Wunderground v.1.15,2013-04-16 17:27:00,
2013-04-16 10:33:00,60.4,28.8,30.10,NW,320,4.0,4.0,30,0.00,,,0.00,729,Wunderground v.1.15,2013-04-16 17:33:00,
2013-04-16 10:38:00,60.9,29.2,30.10,NW,319,4.0,7.0,30,0.00,,,0.00,740,Wunderground v.1.15,2013-04-16 17:38:00,
2013-04-16 10:44:00,61.3,28.7,30.10,NW,315,3.0,4.0,29,0.00,,,0.00,756,Wunderground v.1.15,2013-04-16 17:44:00,
2013-04-16 10:49:00,61.6,28.1,30.10,North,5,2.0,6.0,28,0.00,,,0.00,766,Wunderground v.1.15,2013-04-16 17:49:00,
2013-04-16 10:55:00,62.0,28.5,30.10,NNW,333,4.0,8.0,28,0.00,,,0.00,780,Wunderground v.1.15,2013-04-16 17:55:00,
2013-04-16 11:00:00,62.3,29.6,30.09,NW,307,5.0,5.0,29,0.00,,,0.00,795,Wunderground v.1.15,2013-04-16 18:00:00,
2013-04-16 11:06:00,62.5,28.0,30.09,NNE,13,4.0,10.0,27,0.00,,,0.00,810,Wunderground v.1.15,2013-04-16 18:06:00,
2013-04-16 11:11:00,62.1,24.8,30.09,ENE,59,6.0,11.0,24,0.00,,,0.00,819,Wunderground v.1.15,2013-04-16 18:11:00,
2013-04-16 11:16:00,62.1,25.8,30.09,NNE,28,7.0,11.0,25,0.00,,,0.00,830,Wunderground v.1.15,2013-04-16 18:16:00,
2013-04-16 11:22:00,62.7,26.3,30.09,NNW,346,6.0,14.0,25,0.00,,,0.00,840,Wunderground v.1.15,2013-04-16 18:22:00,
2013-04-16 11:28:00,63.2,26.8,30.09,NW,309,5.0,14.0,25,0.00,,,0.00,851,Wunderground v.1.15,2013-04-16 18:28:00,
2013-04-16 11:33:00,64.0,26.4,30.09,North,355,4.0,9.0,24,0.00,,,0.00,861,Wunderground v.1.15,2013-04-16 18:33:00,
2013-04-16 11:39:00,64.0,25.4,30.09,NE,40,6.0,11.0,23,0.00,,,0.00,868,Wunderground v.1.15,2013-04-16 18:39:00,
2013-04-16 11:44:00,63.9,26.4,30.09,ENE,65,6.0,9.0,24,0.00,,,0.00,877,Wunderground v.1.15,2013-04-16 18:44:00,
2013-04-16 11:50:00,64.2,25.6,30.09,NE,46,4.0,6.0,23,0.00,,,0.00,888,Wunderground v.1.15,2013-04-16 18:50:00,
2013-04-16 11:56:00,64.5,25.8,30.09,NW,313,5.0,7.0,23,0.00,,,0.00,889,Wunderground v.1.15,2013-04-16 18:56:00,
2013-04-16 12:01:00,64.7,24.9,30.09,North,355,6.0,10.0,22,0.00,,,0.00,896,Wunderground v.1.15,2013-04-16 19:01:00,
2013-04-16 12:07:00,64.8,26.1,30.09,NNW,334,6.0,10.0,23,0.00,,,0.00,902,Wunderground v.1.15,2013-04-16 19:07:00,
2013-04-16 12:12:00,64.7,24.9,30.09,NNW,333,6.0,7.0,22,0.00,,,0.00,907,Wunderground v.1.15,2013-04-16 19:12:00,
2013-04-16 12:17:00,64.8,25.0,30.08,NE,34,5.0,7.0,22,0.00,,,0.00,912,Wunderground v.1.15,2013-04-16 19:17:00,
2013-04-16 12:22:00,65.4,24.4,30.08,NE,45,4.0,8.0,21,0.00,,,0.00,916,Wunderground v.1.15,2013-04-16 19:22:00,
2013-04-16 12:28:00,65.9,24.8,30.08,NNW,340,4.0,8.0,21,0.00,,,0.00,916,Wunderground v.1.15,2013-04-16 19:28:00,
2013-04-16 12:33:00,66.0,24.9,30.08,SW,225,4.0,5.0,21,0.00,,,0.00,926,Wunderground v.1.15,2013-04-16 19:33:00,
2013-04-16 12:39:00,66.5,24.2,30.08,NW,322,3.0,5.0,20,0.00,,,0.00,932,Wunderground v.1.15,2013-04-16 19:39:00,
2013-04-16 12:44:00,66.9,23.3,30.08,NNW,336,4.0,8.0,19,0.00,,,0.00,939,Wunderground v.1.15,2013-04-16 19:44:00,
2013-04-16 12:50:00,67.0,23.3,30.08,NW,314,6.0,9.0,19,0.00,,,0.00,937,Wunderground v.1.15,2013-04-16 19:50:00,
2013-04-16 12:56:00,66.7,23.1,30.08,NNW,334,7.0,9.0,19,0.00,,,0.00,944,Wunderground v.1.15,2013-04-16 19:56:00,
2013-04-16 13:01:00,66.6,23.0,30.08,NW,325,7.0,7.0,19,0.00,,,0.00,939,Wunderground v.1.15,2013-04-16 20:01:00,
2013-04-16 13:07:00,66.8,21.9,30.08,NNW,337,7.0,12.0,18,0.00,,,0.00,944,Wunderground v.1.15,2013-04-16 20:07:00,
2013-04-16 13:13:00,66.5,24.2,30.08,North,11,6.0,8.0,20,0.00,,,0.00,946,Wunderground v.1.15,2013-04-16 20:13:00,
2013-04-16 13:19:00,66.8,20.5,30.08,NW,319,5.0,9.0,17,0.00,,,0.00,944,Wunderground v.1.15,2013-04-16 20:19:00,
2013-04-16 13:25:00,66.6,20.4,30.08,WNW,300,6.0,8.0,17,0.00,,,0.00,942,Wunderground v.1.15,2013-04-16 20:25:00,
2013-04-16 13:31:00,66.9,22.0,30.08,North,5,7.0,8.0,18,0.00,,,0.00,937,Wunderground v.1.15,2013-04-16 20:31:00,
2013-04-16 13:37:00,67.3,22.3,30.08,NNE,30,7.0,10.0,18,0.00,,,0.00,937,Wunderground v.1.15,2013-04-16 20:37:00,
2013-04-16 13:43:00,67.6,23.8,30.07,NNE,27,4.0,5.0,19,0.00,,,0.00,933,Wunderground v.1.15,2013-04-16 20:43:00,
2013-04-16 13:48:00,68.2,23.0,30.07,ENE,69,3.0,9.0,18,0.00,,,0.00,932,Wunderground v.1.15,2013-04-16 20:48:00,
2013-04-16 13:53:00,67.5,22.5,30.07,NNW,333,5.0,9.0,18,0.00,,,0.00,928,Wunderground v.1.15,2013-04-16 20:53:00,
2013-04-16 13:58:00,67.4,22.4,30.07,NE,42,7.0,9.0,18,0.00,,,0.00,926,Wunderground v.1.15,2013-04-16 20:58:00,
2013-04-16 14:04:00,66.9,20.6,30.07,North,360,8.0,17.0,17,0.00,,,0.00,919,Wunderground v.1.15,2013-04-16 21:04:00,
2013-04-16 14:10:00,66.7,20.5,30.07,NE,53,8.0,11.0,17,0.00,,,0.00,918,Wunderground v.1.15,2013-04-16 21:10:00,
2013-04-16 14:15:00,66.3,21.5,30.07,NE,38,8.0,11.0,18,0.00,,,0.00,909,Wunderground v.1.15,2013-04-16 21:15:00,
2013-04-16 14:20:00,66.8,21.9,30.07,North,355,8.0,8.0,18,0.00,,,0.00,911,Wunderground v.1.15,2013-04-16 21:20:00,
2013-04-16 14:26:00,67.6,21.2,30.07,NNE,25,6.0,12.0,17,0.00,,,0.00,898,Wunderground v.1.15,2013-04-16 21:26:00,
2013-04-16 14:31:00,67.4,21.0,30.07,NW,326,6.0,8.0,17,0.00,,,0.00,889,Wunderground v.1.15,2013-04-16 21:31:00,
2013-04-16 14:37:00,67.2,22.2,30.07,NNE,26,7.0,11.0,18,0.00,,,0.00,888,Wunderground v.1.15,2013-04-16 21:37:00,
2013-04-16 14:43:00,67.0,22.1,30.07,NNE,22,6.0,8.0,18,0.00,,,0.00,896,Wunderground v.1.15,2013-04-16 21:43:00,
2013-04-16 14:49:00,67.6,23.8,30.07,NNW,337,3.0,8.0,19,0.00,,,0.00,882,Wunderground v.1.15,2013-04-16 21:49:00,
2013-04-16 14:54:00,68.0,22.9,30.07,North,350,4.0,10.0,18,0.00,,,0.00,854,Wunderground v.1.15,2013-04-16 21:54:00,
2013-04-16 14:59:00,68.0,21.5,30.06,NNE,25,6.0,10.0,17,0.00,,,0.00,849,Wunderground v.1.15,2013-04-16 21:59:00,
2013-04-16 15:05:00,68.3,21.8,30.06,NNE,30,4.0,6.0,17,0.00,,,0.00,838,Wunderground v.1.15,2013-04-16 22:05:00,
2013-04-16 15:10:00,67.7,21.3,30.06,East,88,6.0,7.0,17,0.00,,,0.00,847,Wunderground v.1.15,2013-04-16 22:10:00,
2013-04-16 15:17:00,67.5,22.5,30.06,East,99,7.0,13.0,18,0.00,,,0.00,689,Wunderground v.1.15,2013-04-16 22:17:00,
2013-04-16 15:23:00,67.2,20.9,30.06,NNE,24,7.0,12.0,17,0.00,,,0.00,879,Wunderground v.1.15,2013-04-16 22:23:00,
2013-04-16 15:28:00,66.5,20.3,30.06,North,9,7.0,13.0,17,0.00,,,0.00,828,Wunderground v.1.15,2013-04-16 22:28:00,
2013-04-16 15:34:00,66.3,21.5,30.06,NNE,24,6.0,14.0,18,0.00,,,0.00,828,Wunderground v.1.15,2013-04-16 22:34:00,
2013-04-16 15:40:00,66.5,21.6,30.06,NNW,339,8.0,8.0,18,0.00,,,0.00,789,Wunderground v.1.15,2013-04-16 22:40:00,
2013-04-16 15:46:00,66.8,21.9,30.06,NE,49,8.0,14.0,18,0.00,,,0.00,765,Wunderground v.1.15,2013-04-16 22:46:00,
2013-04-16 15:52:00,67.1,22.1,30.06,ENE,74,7.0,9.0,18,0.00,,,0.00,788,Wunderground v.1.15,2013-04-16 22:52:00,
2013-04-16 15:58:00,66.8,23.2,30.06,WNW,288,6.0,9.0,19,0.00,,,0.00,174,Wunderground v.1.15,2013-04-16 22:58:00,
2013-04-16 16:03:00,66.5,21.6,30.06,NNE,19,7.0,12.0,18,0.00,,,0.00,751,Wunderground v.1.15,2013-04-16 23:03:00,
2013-04-16 16:08:00,66.5,21.6,30.05,NE,34,7.0,12.0,18,0.00,,,0.00,712,Wunderground v.1.15,2013-04-16 23:08:00,
2013-04-16 16:14:00,66.9,23.3,30.06,North,355,7.0,10.0,19,0.00,,,0.00,694,Wunderground v.1.15,2013-04-16 23:14:00,
2013-04-16 16:19:00,67.3,22.3,30.06,North,360,7.0,13.0,18,0.00,,,0.00,673,Wunderground v.1.15,2013-04-16 23:19:00,
2013-04-16 16:25:00,67.8,22.7,30.05,NW,317,4.0,7.0,18,0.00,,,0.00,687,Wunderground v.1.15,2013-04-16 23:25:00,
2013-04-16 16:31:00,68.1,23.0,30.05,NNW,347,2.0,5.0,18,0.00,,,0.00,693,Wunderground v.1.15,2013-04-16 23:31:00,
2013-04-16 16:37:00,68.4,23.2,30.06,NE,53,3.0,5.0,18,0.00,,,0.00,675,Wunderground v.1.15,2013-04-16 23:37:00,
2013-04-16 16:42:00,67.6,22.5,30.05,NNE,21,4.0,7.0,18,0.00,,,0.00,95,Wunderground v.1.15,2013-04-16 23:42:00,
2013-04-16 16:47:00,67.0,22.1,30.06,NE,46,4.0,8.0,18,0.00,,,0.00,114,Wunderground v.1.15,2013-04-16 23:47:00,
2013-04-16 16:53:00,66.6,23.0,30.06,NE,49,3.0,4.0,19,0.00,,,0.00,113,Wunderground v.1.15,2013-04-16 23:53:00,
2013-04-16 16:59:00,66.7,23.1,30.06,NE,41,1.0,4.0,19,0.00,,,0.00,135,Wunderground v.1.15,2013-04-16 23:59:00,
2013-04-16 17:05:00,66.8,23.2,30.06,ENE,63,1.0,5.0,19,0.00,,,0.00,98,Wunderground v.1.15,2013-04-17 00:05:00,
2013-04-16 17:10:00,66.6,24.2,30.06,East,93,2.0,2.0,20,0.00,,,0.00,76,Wunderground v.1.15,2013-04-17 00:10:00,
2013-04-16 17:15:00,66.4,25.2,30.06,East,90,2.0,4.0,21,0.00,,,0.00,83,Wunderground v.1.15,2013-04-17 00:15:00,
2013-04-16 17:21:00,66.3,33.9,30.06,WSW,252,1.0,4.0,30,0.00,,,0.00,86,Wunderground v.1.15,2013-04-17 00:21:00,
2013-04-16 17:26:00,66.0,33.7,30.06,SSW,200,1.0,4.0,30,0.00,,,0.00,97,Wunderground v.1.15,2013-04-17 00:26:00,
2013-04-16 17:32:00,65.5,34.0,30.06,SW,220,2.0,3.0,31,0.00,,,0.00,91,Wunderground v.1.15,2013-04-17 00:32:00,
2013-04-16 17:37:00,65.3,33.9,30.07,NW,320,2.0,5.0,31,0.00,,,0.00,374,Wunderground v.1.15,2013-04-17 00:37:00,
2013-04-16 17:42:00,65.1,34.5,30.06,NW,315,2.0,3.0,32,0.00,,,0.00,79,Wunderground v.1.15,2013-04-17 00:42:00,
2013-04-16 17:47:00,65.0,34.4,30.07,South,171,2.0,5.0,32,0.00,,,0.00,401,Wunderground v.1.15,2013-04-17 00:47:00,
2013-04-16 17:53:00,65.0,33.6,30.06,South,171,1.0,3.0,31,0.00,,,0.00,383,Wunderground v.1.15,2013-04-17 00:53:00,
2013-04-16 17:58:00,64.9,33.5,30.07,SE,127,1.0,3.0,31,0.00,,,0.00,304,Wunderground v.1.15,2013-04-17 00:58:00,
2013-04-16 18:04:00,64.7,34.1,30.07,SE,126,1.0,3.0,32,0.00,,,0.00,56,Wunderground v.1.15,2013-04-17 01:04:00,
2013-04-16 18:10:00,64.6,32.4,30.07,SE,126,0.0,3.0,30,0.00,,,0.00,183,Wunderground v.1.15,2013-04-17 01:10:00,
2013-04-16 18:16:00,64.8,33.4,30.07,SSE,148,0.0,3.0,31,0.00,,,0.00,292,Wunderground v.1.15,2013-04-17 01:16:00,
2013-04-16 18:21:00,65.0,34.4,30.07,SSE,147,0.0,4.0,32,0.00,,,0.00,276,Wunderground v.1.15,2013-04-17 01:21:00,
2013-04-16 18:27:00,65.6,26.8,30.07,NW,321,1.0,8.0,23,0.00,,,0.00,255,Wunderground v.1.15,2013-04-17 01:27:00,
2013-04-16 18:32:00,66.0,27.1,30.07,NNE,19,2.0,10.0,23,0.00,,,0.00,223,Wunderground v.1.15,2013-04-17 01:32:00,
2013-04-16 18:38:00,65.9,25.9,30.07,NNE,19,5.0,13.0,22,0.00,,,0.00,193,Wunderground v.1.15,2013-04-17 01:38:00,
2013-04-16 18:44:00,65.7,24.7,30.07,North,350,5.0,7.0,21,0.00,,,0.00,158,Wunderground v.1.15,2013-04-17 01:44:00,
2013-04-16 18:50:00,65.4,25.5,30.08,North,360,4.0,4.0,22,0.00,,,0.00,132,Wunderground v.1.15,2013-04-17 01:50:00,
2013-04-16 18:55:00,65.3,25.4,30.08,North,355,3.0,8.0,22,0.00,,,0.00,111,Wunderground v.1.15,2013-04-17 01:55:00,
2013-04-16 19:00:00,65.2,25.4,30.08,North,360,4.0,5.0,22,0.00,,,0.00,91,Wunderground v.1.15,2013-04-17 02:00:00,
2013-04-16 19:05:00,65.0,25.2,30.08,NE,34,4.0,9.0,22,0.00,,,0.00,72,Wunderground v.1.15,2013-04-17 02:05:00,
2013-04-16 19:10:00,64.7,24.9,30.08,NE,49,3.0,3.0,22,0.00,,,0.00,49,Wunderground v.1.15,2013-04-17 02:10:00,
2013-04-16 19:16:00,64.4,25.8,30.09,ENE,60,3.0,6.0,23,0.00,,,0.00,32,Wunderground v.1.15,2013-04-17 02:16:00,
2013-04-16 19:21:00,64.2,25.6,30.09,NE,50,2.0,3.0,23,0.00,,,0.00,23,Wunderground v.1.15,2013-04-17 02:21:00,
2013-04-16 19:27:00,63.8,25.3,30.09,North,5,3.0,6.0,23,0.00,,,0.00,19,Wunderground v.1.15,2013-04-17 02:27:00,
2013-04-16 19:33:00,63.4,23.8,30.09,North,355,5.0,6.0,22,0.00,,,0.00,16,Wunderground v.1.15,2013-04-17 02:33:00,
2013-04-16 19:38:00,63.1,24.7,30.09,NNW,344,4.0,6.0,23,0.00,,,0.00,11,Wunderground v.1.15,2013-04-17 02:38:00,
2013-04-16 19:43:00,62.9,24.5,30.09,NNW,344,1.0,3.0,23,0.00,,,0.00,7,Wunderground v.1.15,2013-04-17 02:43:00,
2013-04-16 19:48:00,62.6,24.2,30.10,NNE,32,1.0,4.0,23,0.00,,,0.00,5,Wunderground v.1.15,2013-04-17 02:48:00,
2013-04-16 19:53:00,62.2,23.9,30.10,NNE,19,1.0,4.0,23,0.00,,,0.00,0,Wunderground v.1.15,2013-04-17 02:53:00,
2013-04-16 19:59:00,61.9,23.6,30.10,NNW,346,2.0,4.0,23,0.00,,,0.00,0,Wunderground v.1.15,2013-04-17 02:59:00,
2013-04-16 20:04:00,61.6,23.4,30.10,NNE,25,1.0,3.0,23,0.00,,,0.00,0,Wunderground v.1.15,2013-04-17 03:04:00,
2013-04-16 20:09:00,61.4,24.2,30.10,NNW,339,1.0,3.0,24,0.00,,,0.00,0,Wunderground v.1.15,2013-04-17 03:09:00,
2013-04-16 20:15:00,61.1,23.0,30.11,North,350,0.0,3.0,23,0.00,,,0.00,0,Wunderground v.1.15,2013-04-17 03:15:00,
2013-04-16 20:20:00,60.8,24.7,30.12,North,350,0.0,3.0,25,0.00,,,0.00,0,Wunderground v.1.15,2013-04-17 03:20:00,
2013-04-16 20:25:00,60.4,24.4,30.12,North,355,0.0,4.0,25,0.00,,,0.00,0,Wunderground v.1.15,2013-04-17 03:25:00,
2013-04-16 20:30:00,60.1,25.1,30.12,North,355,0.0,3.0,26,0.00,,,0.00,0,Wunderground v.1.15,2013-04-17 03:30:00,
2013-04-16 20:36:00,59.6,24.6,30.12,North,355,0.0,3.0,26,0.00,,,0.00,0,Wunderground v.1.15,2013-04-17 03:36:00,
2013-04-16 20:41:00,59.2,26.1,30.13,North,355,0.0,3.0,28,0.00,,,0.00,0,Wunderground v.1.15,2013-04-17 03:41:00,
2013-04-16 20:47:00,58.7,26.5,30.13,North,355,0.0,3.0,29,0.00,,,0.00,0,Wunderground v.1.15,2013-04-17 03:47:00,
2013-04-16 20:52:00,58.2,26.9,30.14,North,355,0.0,3.0,30,0.00,,,0.00,0,Wunderground v.1.15,2013-04-17 03:52:00,
2013-04-16 20:57:00,57.7,27.2,30.14,North,355,0.0,3.0,31,0.00,,,0.00,0,Wunderground v.1.15,2013-04-17 03:57:00,
2013-04-16 21:00:00,57.3,27.7,30.14,North,355,0.0,3.0,32,0.00,,,0.00,0,Wunderground v.1.15,2013-04-17 04:00:00,
2013-04-16 21:01:00,57.2,27.6,30.14,North,355,0.0,3.0,32,0.00,,,0.00,0,Wunderground v.1.15,2013-04-17 04:01:00,
2013-04-16 21:02:00,57.1,27.5,30.14,North,355,0.0,3.0,32,0.00,,,0.00,0,Wunderground v.1.15,2013-04-17 04:02:00,
2013-04-16 21:03:00,57.0,27.4,30.14,North,355,0.0,3.0,32,0.00,,,0.00,0,Wunderground v.1.15,2013-04-17 04:03:00,
2013-04-16 21:04:00,56.9,27.3,30.14,North,355,0.0,3.0,32,0.00,,,0.00,0,Wunderground v.1.15,2013-04-17 04:04:00,
2013-04-16 21:09:00,56.3,28.3,30.15,North,355,0.0,3.0,34,0.00,,,0.00,0,Wunderground v.1.15,2013-04-17 04:09:00,
2013-04-16 21:15:00,55.9,27.9,30.15,North,355,0.0,3.0,34,0.00,,,0.00,0,Wunderground v.1.15,2013-04-17 04:15:00,
2013-04-16 21:20:00,55.3,28.8,30.15,North,355,0.0,3.0,36,0.00,,,0.00,0,Wunderground v.1.15,2013-04-17 04:20:00,
2013-04-16 21:25:00,54.7,28.2,30.15,North,355,0.0,3.0,36,0.00,,,0.00,0,Wunderground v.1.15,2013-04-17 04:25:00,
2013-04-16 21:30:00,54.4,29.3,30.15,North,355,0.0,3.0,38,0.00,,,0.00,0,Wunderground v.1.15,2013-04-17 04:30:00,
2013-04-16 21:36:00,53.9,28.8,30.15,North,355,0.0,3.0,38,0.00,,,0.00,0,Wunderground v.1.15,2013-04-17 04:36:00,
2013-04-16 21:42:00,53.6,29.8,30.16,North,355,1.0,4.0,40,0.00,,,0.00,0,Wunderground v.1.15,2013-04-17 04:42:00,
2013-04-16 21:47:00,53.2,31.8,30.16,West,271,2.0,7.0,44,0.00,,,0.00,0,Wunderground v.1.15,2013-04-17 04:47:00,
2013-04-16 21:52:00,53.0,30.5,30.16,West,271,2.0,3.0,42,0.00,,,0.00,0,Wunderground v.1.15,2013-04-17 04:52:00,
2013-04-16 21:58:00,52.7,30.2,30.17,ENE,57,1.0,7.0,42,0.00,,,0.00,0,Wunderground v.1.15,2013-04-17 04:58:00,
2013-04-16 22:03:00,52.5,30.6,30.17,NE,56,1.0,3.0,43,0.00,,,0.00,0,Wunderground v.1.15,2013-04-17 05:03:00,
2013-04-16 22:08:00,52.3,29.9,30.17,NE,56,0.0,3.0,42,0.00,,,0.00,0,Wunderground v.1.15,2013-04-17 05:08:00,
2013-04-16 22:14:00,51.8,30.0,30.17,NE,56,0.0,3.0,43,0.00,,,0.00,0,Wunderground v.1.15,2013-04-17 05:14:00,
2013-04-16 22:19:00,51.3,29.0,30.17,NE,53,0.0,3.0,42,0.00,,,0.00,0,Wunderground v.1.15,2013-04-17 05:19:00,
2013-04-16 22:25:00,51.0,29.3,30.17,NE,53,0.0,3.0,43,0.00,,,0.00,0,Wunderground v.1.15,2013-04-17 05:25:00,
2013-04-16 22:30:00,50.7,29.6,30.18,NE,53,0.0,3.0,44,0.00,,,0.00,0,Wunderground v.1.15,2013-04-17 05:30:00,
2013-04-16 22:35:00,50.5,28.8,30.18,NE,51,0.0,3.0,43,0.00,,,0.00,0,Wunderground v.1.15,2013-04-17 05:35:00,
2013-04-16 22:40:00,50.4,29.8,30.18,West,259,1.0,1.0,45,0.00,,,0.00,0,Wunderground v.1.15,2013-04-17 05:40:00,
2013-04-16 22:46:00,50.2,29.7,30.18,NW,305,1.0,3.0,45,0.00,,,0.00,0,Wunderground v.1.15,2013-04-17 05:46:00,
2013-04-16 22:51:00,50.0,29.5,30.18,NW,309,0.0,3.0,45,0.00,,,0.00,0,Wunderground v.1.15,2013-04-17 05:51:00,
2013-04-16 22:56:00,49.9,28.8,30.18,NW,307,1.0,3.0,44,0.00,,,0.00,0,Wunderground v.1.15,2013-04-17 05:56:00,
2013-04-16 23:01:00,50.1,27.9,30.18,NW,307,0.0,3.0,42,0.00,,,0.00,0,Wunderground v.1.15,2013-04-17 06:01:00,
2013-04-16 23:07:00,50.5,28.2,30.19,NW,313,1.0,3.0,42,0.00,,,0.00,0,Wunderground v.1.15,2013-04-17 06:07:00,
2013-04-16 23:12:00,50.9,28.6,30.19,NW,313,1.0,3.0,42,0.00,,,0.00,0,Wunderground v.1.15,2013-04-17 06:12:00,
2013-04-16 23:18:00,51.0,28.7,30.19,NW,313,0.0,3.0,42,0.00,,,0.00,0,Wunderground v.1.15,2013-04-17 06:18:00,
2013-04-16 23:23:00,51.1,28.8,30.19,NW,313,0.0,3.0,42,0.00,,,0.00,0,Wunderground v.1.15,2013-04-17 06:23:00,
2013-04-16 23:28:00,51.0,29.3,30.19,NW,313,0.0,3.0,43,0.00,,,0.00,0,Wunderground v.1.15,2013-04-17 06:28:00,
2013-04-16 23:33:00,50.7,29.6,30.20,NW,304,0.0,3.0,44,0.00,,,0.00,0,Wunderground v.1.15,2013-04-17 06:33:00,
2013-04-16 23:38:00,50.5,29.9,30.20,NW,304,0.0,3.0,45,0.00,,,0.00,0,Wunderground v.1.15,2013-04-17 06:38:00,
2013-04-16 23:44:00,50.1,29.6,30.20,NW,308,0.0,3.0,45,0.00,,,0.00,0,Wunderground v.1.15,2013-04-17 06:44:00,
2013-04-16 23:49:00,49.9,29.4,30.20,NW,308,0.0,3.0,45,0.00,,,0.00,0,Wunderground v.1.15,2013-04-17 06:49:00,
2013-04-16 23:54:00,49.6,29.1,30.19,NW,308,0.0,3.0,45,0.00,,,0.00,0,Wunderground v.1.15,2013-04-17 06:54:00,
2013-04-16 23:59:00,49.3,30.4,30.20,NW,317,0.0,3.0,48,0.00,,,0.00,0,Wunderground v.1.15,2013-04-17 06:59:00,